Flag for Germany Past Weather in Bornheim (Rheinland), North Rhine-Westphalia, Germany — Yesterday and Last 2 Weeks

Now
69 °F

Low clouds.


Feels Like: 69 °F
Forecast: 64 / 77 °F
Wind: 1 mph from West

Location: Aachen-Orsbach

Current Time: Jul 24, 2016 at 12:48:00 PM

Latest Report: Jul 24, 2016 at 12:00 PM


Visibility: 2 mi

Pressure: 30.12 "Hg

Humidity: 85%

Dew Point: 64 °F

Location of Bornheim (Rheinland)Location

Past Weather in Bornheim (Rheinland) — Graph

°F

Bornheim (Rheinland) Temperature Yesterday

Maximum temperature yesterday: 76 °F (at 6:00 PM)
Minimum temperature yesterday: 65 °F (at 7:00 AM)
Average temperature yesterday: 69 °F

High & Low Weather Summary for the Past Weeks

 TemperatureHumidityPressure
High92 °F (Jul 20, 4:00 PM)99% (Jul 24, 7:00 AM)30.32 "Hg (Jul 24, 7:00 AM)
Low48 °F (Jul 14, 3:00 AM)29% (Jul 20, 3:00 PM)29.78 "Hg (Jul 10, 7:00 PM)
Average67 °F73%30.05 "Hg
* Reported Jul 9 10:00 AM — Jul 24 10:00 AM, Bornheim (Rheinland), Weather by CustomWeather, © 2016

Note: Actual official high and low records may vary slightly from our data, if they occured in-between our weather recording intervals... More about our weather records

Advertising

Bornheim (Rheinland) Weather History for the Previous 24 Hours

Scroll right to see more
 ConditionsComfort  
Time TempWeatherWind HumidityBarometerVisibility
10:00 AM
Sun, Jul 24
63 °FLow clouds.5 mph98%30.14 "Hg1 mi
9:00 AM63 °FLow clouds.3 mph99%30.13 "Hg1 mi
7:00 AM63 °FLow clouds.3 mph99%30.12 "Hg0 mi
6:00 AM63 °FLow clouds.3 mph98%30.12 "Hg0 mi
4:00 AM64 °FLow clouds.3 mph98%30.12 "Hg1 mi
3:00 AM65 °FLow clouds.5 mph98%30.12 "Hg1 mi
1:00 AM65 °FFog.3 mph98%30.11 "Hg1 mi
12:00 AM65 °FDense fog.3 mph98%30.11 "Hg1 mi
10:00 PM
Sat, Jul 23
67 °FLight rain. Low clouds.3 mph95%30.09 "Hg2 mi
9:00 PM68 °FLight rain. Overcast.3 mph90%30.07 "Hg3 mi
7:00 PM76 °FPartly sunny.3 mph66%30.04 "Hg5 mi
6:00 PM76 °FPartly sunny.2 mph63%30.04 "Hg5 mi
4:00 PM73 °FOvercast.2 mph71%30.07 "Hg3 mi
3:00 PM71 °FOvercast.3 mph74%30.07 "Hg3 mi
1:00 PM69 °FOvercast.2 mph80%30.07 "Hg2 mi
12:00 PM67 °FFog.3 mph87%30.08 "Hg2 mi
Weather by CustomWeather, © 2016

See weather overviewHow to use our weather pages